Regional Weather Roundup
Issued by NWS

Home | Current Version | Previous Version | Graphics & Text | Print | Product List | Glossary On
Versions: 1 2 3 4 5 6 7 8 9 10 11 12 13 14 15 16 17 18 19 20 21 22 23 24 25 26 27 28 29 30 31 32 33 34 35 36 37 38 39 40 41 42 43 44 45 46 47 48 49 50
000
ASUS45 KBOU 052107
RWRCO

WEATHER ROUNDUP FOR COLORADO
NATIONAL WEATHER SERVICE DENVER/BOULDER CO
200 PM MST MON DEC 05 2016

NOTE: "FAIR" INDICATES FEW OR NO CLOUDS BELOW 12000 FEET WITH NO
SIGNIFICANT WEATHER AND/OR OBSTRUCTIONS TO VISIBILITY.

COZ001>005-013-030-031-052200-
...NORTHWEST COLORADO...

CITY           SKY/WX    TMP DP  RH WIND       PRES   REMARKS
CRAIG          CLOUDY    23   1  38 NW16G28   29.89R WCI  10
HAYDEN         CLOUDY    19   3  49 W15G29    29.86R WCI   5
MEEKER         CLOUDY    31  14  49 N13       29.83R WCI  21
MOUNT WERNER   NOT AVBL
STEAMBOAT SPGS CLOUDY    18   5  57 W14G25    29.84R WCI   5
WALDEN           N/A     14   7  73 W14       29.77R WCI  -1
$$

COZ006>008-011-052200-
...WEST CENTRAL VALLEYS...

CITY           SKY/WX    TMP DP  RH WIND       PRES   REMARKS
GRAND JUNCTION FAIR      44  19  36 NW15      29.82S
MONTROSE       FAIR      43  17  35 NW7       29.82F
EAGLE          MOSUNNY   39  14  35 W20G26    29.74F
RIFLE          CLOUDY    42  22  44 NW18G24   29.77R
DELTA          NOT AVBL
NUCLA          NOT AVBL
$$

COZ017>023-064>068-052200-
...SOUTHWEST COLORADO...

CITY           SKY/WX    TMP DP  RH WIND       PRES   REMARKS
DURANGO        FAIR      46  15  28 W25       29.79F
CORTEZ         FAIR      47  17  30 W15       29.85F
PAGOSA SPRINGS FAIR      40  15  35 S3        29.82S
TELLURIDE      PTSUNNY   35  13  41 W15G22    29.87S WCI  25
WOLF CREEK PAS FAIR      21  12  68 SW14G20   29.87F WCI   8
$$

COZ009-010-012-014-032>034-037-058>063-052200-
...CENTRAL COLORADO...

CITY           SKY/WX    TMP DP  RH WIND       PRES   REMARKS
ASPEN          PTSUNNY   39   7  26 N10G20    29.70F
BUENA VISTA    CLOUDY    37  10  32 W28G39    29.71F
COPPER MTN     NOT AVBL
BERTHOUD PASS  SNOW       9  -4  56 W21       29.61S VSB 1/4 WCI -11
COTTONWOOD PAS LGT SNOW  32  10  40 W9G30     29.71F WCI  24
GUNNISON       LGT RAIN  38  14  37 W15G23    29.78F
KREMMLING      CLOUDY    27  12  54 NW14G23   29.76R WCI  15
LEADVILLE      CLOUDY    25   6  44 NW14G22   29.69F WCI  13
MONARCH PASS   PTSUNNY   19  10  68 W47G72    29.81F HAZE    WCI  -3
SALIDA         PTSUNNY   45  10  23 W20G26    29.80S
SUNLIGHT       CLOUDY    21  14  73 SW21G45   29.73F HAZE    WCI   6
WILKERSON PASS CLOUDY    25   9  50 SW15G24   29.71F WCI  12
$$

COZ069>075-052200-
...SAN LUIS VALLEY/SANGRE DE CRISTO MOUNTAINS...

CITY           SKY/WX    TMP DP  RH WIND       PRES   REMARKS
ALAMOSA        FAIR      44  16  32 N5        29.73F
LA VETA PASS   FAIR      37  14  38 N21G37    29.75S
SAGUACHE       FAIR      45  10  24 NW23G32   29.73S
$$

COZ035-036-038>040-052200-
...NORTHERN COLORADO FRONT RANGE...

CITY           SKY/WX    TMP DP  RH WIND       PRES   REMARKS
DENVER INTL AP FAIR      53   9  17 W23G31    29.59S
DMNS CITY PARK   N/A     51   9  18 SW12G22   29.62R
AURORA         MOSUNNY   51   9  18 W24       29.61S
FRONT RANGE AP MOSUNNY   54   9  16 W23G33    29.61S
ERIE MUNI ARPT FAIR      49  15  25 W26       29.62R
BOULDER MUN AP CLOUDY    43  19  39 W21G28    29.63R
CENTENNIAL     FAIR      50  10  20 W13G25    29.62R
BROOMFIELD     MOSUNNY   50  12  22 SW18G26   29.63S
FORT COLLINS   FAIR      45  14  29 NW23G30   29.64R
LONGMONT       FAIR      48  20  33 SW14G20   29.65S
$$

COZ041-046-047-076>085-087-088-052200-
...PIKES PEAK/PALMER DIVIDE AND SOUTHERN FOOTHILLS...

CITY           SKY/WX    TMP DP  RH WIND       PRES   REMARKS
COLO. SPRINGS  FAIR      54  -1  10 W18G32    29.63R
A. F. ACADEMY  FAIR      49   2  14 W14G30    29.64S
SCHRIEVER AFB  NOT AVBL
ELLICOTT       FAIR     N/A N/A N/A NW25G33   29.61S
FALCON         FAIR      49   0  13 W26G35    29.66R
FORT CARSON    FAIR      56   3  11 W20G26    29.61R
LIMON          FAIR      55  16  21 NW18      29.60S
MONUMENT HILL  FAIR      46  10  23 W18G25    29.66S
TRINIDAD       FAIR      63   9  12 S13G21    29.58F
$$

COZ042>045-048>051-090-091-052200-
...NORTHEAST COLORADO...

CITY           SKY/WX    TMP DP  RH WIND       PRES   REMARKS
GREELEY ARPT   FAIR      38  11  32 NW46G55   29.62
AKRON          FAIR      44   9  23 N29G36    29.65R
BURLINGTON     FAIR      59  17  19 NE15      29.59R
WRAY           NOT AVBL
STERLING       FAIR      43   5  21 NW39G51   29.65R
HOLYOKE        PTSUNNY   46   3  17 NW32G41   29.65R
FORT MORGAN    FAIR      43   7  22 NW36G46   29.64R
$$

COZ086-089-092>099-052200-
...SOUTHEAST COLORADO...

CITY           SKY/WX    TMP DP  RH WIND       PRES   REMARKS
PUEBLO         FAIR      60   4  10 W38G49    29.59R
LA JUNTA       FAIR      65  14  14 NW23G38   29.56S
LAMAR          FAIR      68  12  11 NW26G41   29.51R HAZE
SPRINGFIELD      N/A     65  17  15 N12       29.55R
$$



USA.gov is the U.S. government's official web portal to all federal, state and local government web resources and services.